Time,TemperatureF,DewpointF,PressureIn,WindDirection,WindDirectionDegrees,WindSpeedMPH,WindSpeedGustMPH,Humidity,HourlyPrecipIn,Conditions,Clouds,dailyrainin,SolarRadiationWatts/m^2,SoftwareType,DateUTC
2013-07-22 00:00:00,80.6,73.5,29.87,SSW,210,0.0,6.0,79,0.00,,,0.00,0.00,VWS V14.01,2013-07-22 05:00:00,
2013-07-22 00:01:00,80.6,73.5,29.87,SSW,210,0.0,6.0,79,0.00,,,0.00,0.00,VWS V14.01,2013-07-22 05:01:00,
2013-07-22 00:06:00,80.7,73.6,29.87,SSW,195,1.0,6.0,79,0.00,,,0.00,0.00,VWS V14.01,2013-07-22 05:06:00,
2013-07-22 00:10:00,80.7,73.6,29.86,SSW,205,0.0,6.0,79,0.00,,,0.00,0.00,VWS V14.01,2013-07-22 05:10:00,
2013-07-22 00:11:00,80.6,73.5,29.86,SSW,206,0.0,3.0,79,0.00,,,0.00,0.00,VWS V14.01,2013-07-22 05:11:00,
2013-07-22 00:16:00,80.6,73.5,29.87,SSW,202,3.0,5.0,79,0.00,,,0.00,0.00,VWS V14.01,2013-07-22 05:16:00,
2013-07-22 00:20:00,80.6,73.5,29.87,SSW,206,2.0,6.0,79,0.00,,,0.00,0.00,VWS V14.01,2013-07-22 05:20:00,
2013-07-22 00:21:00,80.6,73.5,29.86,SSW,199,2.0,5.0,79,0.00,,,0.00,0.00,VWS V14.01,2013-07-22 05:21:00,
2013-07-22 00:26:00,80.5,73.4,29.87,SW,226,1.0,5.0,79,0.00,,,0.00,0.00,VWS V14.01,2013-07-22 05:26:00,
2013-07-22 00:30:00,80.4,73.7,29.86,WSW,247,5.0,5.0,80,0.00,,,0.00,0.00,VWS V14.01,2013-07-22 05:30:00,
2013-07-22 00:31:00,80.3,73.6,29.86,South,190,0.0,7.0,80,0.00,,,0.00,0.00,VWS V14.01,2013-07-22 05:31:00,
2013-07-22 00:36:00,80.3,73.6,29.87,South,190,2.0,7.0,80,0.00,,,0.00,0.00,VWS V14.01,2013-07-22 05:36:00,
2013-07-22 00:40:00,80.2,73.5,29.86,South,191,2.0,7.0,80,0.00,,,0.00,0.00,VWS V14.01,2013-07-22 05:40:00,
2013-07-22 00:41:00,80.2,73.5,29.86,South,173,4.0,8.0,80,0.00,,,0.00,0.00,VWS V14.01,2013-07-22 05:41:00,
2013-07-22 00:46:00,80.2,73.5,29.87,SSW,210,2.0,10.0,80,0.00,,,0.00,0.00,VWS V14.01,2013-07-22 05:46:00,
2013-07-22 00:50:00,80.2,73.5,29.86,SSW,196,3.0,12.0,80,0.00,,,0.00,0.00,VWS V14.01,2013-07-22 05:50:00,
2013-07-22 00:51:00,80.2,73.5,29.86,SW,228,1.0,9.0,80,0.00,,,0.00,0.00,VWS V14.01,2013-07-22 05:51:00,
2013-07-22 00:56:00,80.2,73.5,29.86,WNW,299,2.0,9.0,80,0.00,,,0.00,0.00,VWS V14.01,2013-07-22 05:56:00,
2013-07-22 01:00:00,80.2,73.5,29.86,SSW,203,3.0,9.0,80,0.00,,,0.00,0.00,VWS V14.01,2013-07-22 06:00:00,
2013-07-22 01:01:00,80.2,73.5,29.86,SSE,163,3.0,6.0,80,0.00,,,0.00,0.00,VWS V14.01,2013-07-22 06:01:00,
2013-07-22 01:06:00,80.1,73.8,29.86,SSW,192,0.0,9.0,81,0.00,,,0.00,0.00,VWS V14.01,2013-07-22 06:06:00,
2013-07-22 01:10:00,80.0,73.7,29.86,SSW,205,7.0,9.0,81,0.00,,,0.00,0.00,VWS V14.01,2013-07-22 06:10:00,
2013-07-22 01:11:00,80.0,73.7,29.86,SSW,209,2.0,9.0,81,0.00,,,0.00,0.00,VWS V14.01,2013-07-22 06:11:00,
2013-07-22 01:16:00,79.8,73.4,29.86,West,261,2.0,9.0,81,0.00,,,0.00,0.00,VWS V14.01,2013-07-22 06:16:00,
2013-07-22 01:20:00,79.7,73.4,29.86,South,190,2.0,9.0,81,0.00,,,0.00,0.00,VWS V14.01,2013-07-22 06:20:00,
2013-07-22 01:21:00,79.7,73.4,29.86,WSW,242,0.0,7.0,81,0.00,,,0.00,0.00,VWS V14.01,2013-07-22 06:21:00,
2013-07-22 01:26:00,79.6,73.3,29.86,SSW,204,2.0,7.0,81,0.00,,,0.00,0.00,VWS V14.01,2013-07-22 06:26:00,
2013-07-22 01:30:00,79.6,73.6,29.86,SSW,196,0.0,7.0,82,0.00,,,0.00,0.00,VWS V14.01,2013-07-22 06:30:00,
2013-07-22 01:31:00,79.6,73.6,29.86,SSW,198,0.0,2.0,82,0.00,,,0.00,0.00,VWS V14.01,2013-07-22 06:31:00,
2013-07-22 01:36:00,79.5,73.5,29.85,SSW,192,4.0,8.0,82,0.00,,,0.00,0.00,VWS V14.01,2013-07-22 06:36:00,
2013-07-22 01:40:00,79.4,73.4,29.85,SW,233,0.0,8.0,82,0.00,,,0.00,0.00,VWS V14.01,2013-07-22 06:40:00,
2013-07-22 01:41:00,79.4,73.4,29.85,SSW,205,7.0,7.0,82,0.00,,,0.00,0.00,VWS V14.01,2013-07-22 06:41:00,
2013-07-22 01:46:00,79.3,73.3,29.85,South,188,0.0,7.0,82,0.00,,,0.00,0.00,VWS V14.01,2013-07-22 06:46:00,
2013-07-22 01:50:00,79.2,73.2,29.84,SW,229,3.0,10.0,82,0.00,,,0.00,0.00,VWS V14.01,2013-07-22 06:50:00,
2013-07-22 01:51:00,79.2,73.2,29.84,SSW,213,0.0,3.0,82,0.00,,,0.00,0.00,VWS V14.01,2013-07-22 06:51:00,
2013-07-22 01:56:00,79.1,73.1,29.84,SSW,202,1.0,8.0,82,0.00,,,0.00,0.00,VWS V14.01,2013-07-22 06:56:00,
2013-07-22 02:00:00,79.1,73.1,29.84,SW,234,4.0,8.0,82,0.00,,,0.00,0.00,VWS V14.01,2013-07-22 07:00:00,
2013-07-22 02:01:00,79.1,73.1,29.84,SW,227,0.0,8.0,82,0.00,,,0.00,0.00,VWS V14.01,2013-07-22 07:01:00,
2013-07-22 02:06:00,79.0,73.0,29.83,SSW,210,7.0,13.0,82,0.00,,,0.00,0.00,VWS V14.01,2013-07-22 07:06:00,
2013-07-22 02:10:00,79.0,73.0,29.83,South,188,4.0,13.0,82,0.00,,,0.00,0.00,VWS V14.01,2013-07-22 07:10:00,
2013-07-22 02:11:00,79.0,73.0,29.83,South,188,9.0,11.0,82,0.00,,,0.00,0.00,VWS V14.01,2013-07-22 07:11:00,
2013-07-22 02:16:00,78.8,72.8,29.83,South,190,11.0,11.0,82,0.00,,,0.00,0.00,VWS V14.01,2013-07-22 07:16:00,
2013-07-22 02:20:00,78.7,72.8,29.83,South,169,2.0,12.0,82,0.00,,,0.00,0.00,VWS V14.01,2013-07-22 07:20:00,
2013-07-22 02:21:00,78.7,72.8,29.83,SSW,212,7.0,13.0,82,0.00,,,0.00,0.00,VWS V14.01,2013-07-22 07:21:00,
2013-07-22 02:26:00,78.7,72.8,29.83,SSW,213,5.0,13.0,82,0.00,,,0.00,0.00,VWS V14.01,2013-07-22 07:26:00,
2013-07-22 02:30:00,78.7,72.8,29.83,SW,219,6.0,13.0,82,0.00,,,0.00,0.00,VWS V14.01,2013-07-22 07:30:00,
2013-07-22 02:31:00,78.7,72.8,29.83,WSW,240,1.0,8.0,82,0.00,,,0.00,0.00,VWS V14.01,2013-07-22 07:31:00,
2013-07-22 02:36:00,78.7,73.1,29.83,SW,223,4.0,10.0,83,0.00,,,0.00,0.00,VWS V14.01,2013-07-22 07:36:00,
2013-07-22 02:40:00,78.7,73.1,29.84,South,188,0.0,10.0,83,0.00,,,0.00,0.00,VWS V14.01,2013-07-22 07:40:00,
2013-07-22 02:41:00,78.7,73.1,29.84,West,261,2.0,7.0,83,0.00,,,0.00,0.00,VWS V14.01,2013-07-22 07:41:00,
2013-07-22 02:46:00,78.7,73.1,29.84,SSE,161,2.0,7.0,83,0.00,,,0.00,0.00,VWS V14.01,2013-07-22 07:46:00,
2013-07-22 02:50:00,78.6,73.0,29.83,SW,232,0.0,9.0,83,0.00,,,0.00,0.00,VWS V14.01,2013-07-22 07:50:00,
2013-07-22 02:51:00,78.6,73.0,29.84,SW,223,2.0,6.0,83,0.00,,,0.00,0.00,VWS V14.01,2013-07-22 07:51:00,
2013-07-22 02:56:00,78.5,73.3,29.85,WSW,256,3.0,8.0,84,0.00,,,0.00,0.00,VWS V14.01,2013-07-22 07:56:00,
2013-07-22 03:00:00,78.4,73.2,29.84,WSW,248,0.0,8.0,84,0.00,,,0.00,0.00,VWS V14.01,2013-07-22 08:00:00,
2013-07-22 03:01:00,78.4,73.2,29.84,SW,234,4.0,7.0,84,0.00,,,0.00,0.00,VWS V14.01,2013-07-22 08:01:00,
2013-07-22 03:06:00,78.4,73.2,29.85,SW,230,6.0,9.0,84,0.00,,,0.00,0.00,VWS V14.01,2013-07-22 08:06:00,
2013-07-22 03:10:00,78.4,73.2,29.84,WSW,241,5.0,9.0,84,0.00,,,0.00,0.00,VWS V14.01,2013-07-22 08:10:00,
2013-07-22 03:11:00,78.4,73.2,29.84,SSW,207,0.0,5.0,84,0.00,,,0.00,0.00,VWS V14.01,2013-07-22 08:11:00,
2013-07-22 03:16:00,78.3,73.1,29.84,SW,218,0.0,5.0,84,0.00,,,0.00,0.00,VWS V14.01,2013-07-22 08:16:00,
2013-07-22 03:20:00,78.3,73.1,29.85,West,261,3.0,5.0,84,0.00,,,0.00,0.00,VWS V14.01,2013-07-22 08:20:00,
2013-07-22 03:21:00,78.3,73.1,29.85,SW,228,0.0,3.0,84,0.00,,,0.00,0.00,VWS V14.01,2013-07-22 08:21:00,
2013-07-22 03:26:00,78.3,73.1,29.84,WSW,243,0.0,6.0,84,0.00,,,0.00,0.00,VWS V14.01,2013-07-22 08:26:00,
2013-07-22 03:30:00,78.3,73.1,29.84,West,267,0.0,6.0,84,0.00,,,0.00,0.00,VWS V14.01,2013-07-22 08:30:00,
2013-07-22 03:31:00,78.3,73.4,29.85,West,265,0.0,5.0,85,0.00,,,0.00,0.00,VWS V14.01,2013-07-22 08:31:00,
2013-07-22 03:36:00,78.3,73.1,29.85,SW,233,2.0,7.0,84,0.00,,,0.00,0.00,VWS V14.01,2013-07-22 08:36:00,
2013-07-22 03:40:00,78.4,73.2,29.84,SW,229,1.0,10.0,84,0.00,,,0.00,0.00,VWS V14.01,2013-07-22 08:40:00,
2013-07-22 03:41:00,78.4,73.2,29.84,WSW,246,0.0,10.0,84,0.00,,,0.00,0.00,VWS V14.01,2013-07-22 08:41:00,
2013-07-22 03:46:00,78.5,73.3,29.84,SSW,213,1.0,10.0,84,0.00,,,0.00,0.00,VWS V14.01,2013-07-22 08:46:00,
2013-07-22 03:50:00,78.5,73.3,29.84,WSW,244,1.0,10.0,84,0.00,,,0.00,0.00,VWS V14.01,2013-07-22 08:50:00,
2013-07-22 03:51:00,78.5,73.3,29.84,South,191,8.0,10.0,84,0.00,,,0.00,0.00,VWS V14.01,2013-07-22 08:51:00,
2013-07-22 03:56:00,78.5,73.3,29.84,SW,232,0.0,10.0,84,0.00,,,0.00,0.00,VWS V14.01,2013-07-22 08:56:00,
2013-07-22 04:00:00,78.4,73.2,29.84,SSW,205,2.0,10.0,84,0.00,,,0.00,0.00,VWS V14.01,2013-07-22 09:00:00,
2013-07-22 04:01:00,78.4,73.2,29.85,SW,234,1.0,9.0,84,0.00,,,0.00,0.00,VWS V14.01,2013-07-22 09:01:00,
2013-07-22 04:06:00,78.3,73.1,29.85,WSW,238,0.0,9.0,84,0.00,,,0.00,0.00,VWS V14.01,2013-07-22 09:06:00,
2013-07-22 04:10:00,78.3,73.1,29.85,SW,220,1.0,10.0,84,0.00,,,0.00,0.00,VWS V14.01,2013-07-22 09:10:00,
2013-07-22 04:11:00,78.2,73.3,29.85,SSW,203,1.0,3.0,85,0.00,,,0.00,0.00,VWS V14.01,2013-07-22 09:11:00,
2013-07-22 04:16:00,78.2,73.3,29.85,SSW,194,0.0,11.0,85,0.00,,,0.00,0.00,VWS V14.01,2013-07-22 09:16:00,
2013-07-22 04:20:00,78.1,73.2,29.85,WSW,238,0.0,11.0,85,0.00,,,0.00,0.00,VWS V14.01,2013-07-22 09:20:00,
2013-07-22 04:21:00,78.1,73.2,29.85,SW,236,1.0,7.0,85,0.00,,,0.00,0.00,VWS V14.01,2013-07-22 09:21:00,
2013-07-22 04:26:00,78.0,73.1,29.85,WSW,258,4.0,7.0,85,0.00,,,0.00,0.00,VWS V14.01,2013-07-22 09:26:00,
2013-07-22 04:30:00,78.0,73.1,29.85,WSW,248,4.0,7.0,85,0.00,,,0.00,0.00,VWS V14.01,2013-07-22 09:30:00,
2013-07-22 04:31:00,77.9,73.4,29.85,WSW,250,0.0,4.0,86,0.00,,,0.00,0.00,VWS V14.01,2013-07-22 09:31:00,
2013-07-22 04:36:00,77.8,73.3,29.85,WSW,248,5.0,9.0,86,0.00,,,0.00,0.00,VWS V14.01,2013-07-22 09:36:00,
2013-07-22 04:40:00,77.8,73.3,29.85,SSW,205,4.0,9.0,86,0.00,,,0.00,0.00,VWS V14.01,2013-07-22 09:40:00,
2013-07-22 04:41:00,77.7,73.2,29.84,SSW,210,2.0,8.0,86,0.00,,,0.00,0.00,VWS V14.01,2013-07-22 09:41:00,
2013-07-22 04:46:00,77.7,73.5,29.84,SSW,211,1.0,8.0,87,0.00,,,0.00,0.00,VWS V14.01,2013-07-22 09:46:00,
2013-07-22 04:50:00,77.7,73.5,29.84,SW,233,1.0,8.0,87,0.00,,,0.00,0.00,VWS V14.01,2013-07-22 09:50:00,
2013-07-22 04:51:00,77.6,73.4,29.84,WSW,242,3.0,7.0,87,0.00,,,0.00,0.00,VWS V14.01,2013-07-22 09:51:00,
2013-07-22 04:56:00,77.6,73.4,29.84,SW,218,0.0,8.0,87,0.00,,,0.00,0.00,VWS V14.01,2013-07-22 09:56:00,
2013-07-22 05:00:00,77.5,73.3,29.85,SSE,164,2.0,10.0,87,0.00,,,0.00,0.00,VWS V14.01,2013-07-22 10:00:00,
2013-07-22 05:01:00,77.5,73.3,29.85,South,175,3.0,7.0,87,0.00,,,0.00,0.00,VWS V14.01,2013-07-22 10:01:00,
2013-07-22 05:06:00,77.5,73.3,29.85,West,261,0.0,7.0,87,0.00,,,0.00,0.00,VWS V14.01,2013-07-22 10:06:00,
2013-07-22 05:10:00,77.4,73.2,29.85,SSW,205,3.0,12.0,87,0.00,,,0.00,0.00,VWS V14.01,2013-07-22 10:10:00,
2013-07-22 05:11:00,77.4,73.2,29.85,SSW,209,3.0,9.0,87,0.00,,,0.00,0.00,VWS V14.01,2013-07-22 10:11:00,
2013-07-22 05:16:00,77.3,73.1,29.84,WSW,247,2.0,9.0,87,0.00,,,0.00,0.00,VWS V14.01,2013-07-22 10:16:00,
2013-07-22 05:20:00,77.3,73.1,29.84,SW,222,1.0,12.0,87,0.00,,,0.00,0.00,VWS V14.01,2013-07-22 10:20:00,
2013-07-22 05:21:00,77.3,73.1,29.84,South,185,0.0,6.0,87,0.00,,,0.00,0.00,VWS V14.01,2013-07-22 10:21:00,
2013-07-22 05:26:00,77.3,73.1,29.84,SW,227,1.0,8.0,87,0.00,,,0.00,0.00,VWS V14.01,2013-07-22 10:26:00,
2013-07-22 05:30:00,77.3,73.1,29.84,SW,234,3.0,8.0,87,0.00,,,0.00,0.00,VWS V14.01,2013-07-22 10:30:00,
2013-07-22 05:31:00,77.3,73.1,29.84,South,191,1.0,10.0,87,0.00,,,0.00,0.00,VWS V14.01,2013-07-22 10:31:00,
2013-07-22 05:36:00,77.2,73.0,29.84,SW,232,1.0,10.0,87,0.00,,,0.00,0.00,VWS V14.01,2013-07-22 10:36:00,
2013-07-22 05:40:00,77.2,73.0,29.84,SW,232,4.0,12.0,87,0.00,,,0.00,0.00,VWS V14.01,2013-07-22 10:40:00,
2013-07-22 05:41:00,77.2,73.0,29.84,WSW,248,0.0,8.0,87,0.00,,,0.00,0.00,VWS V14.01,2013-07-22 10:41:00,
2013-07-22 05:46:00,77.2,73.0,29.84,South,186,1.0,10.0,87,0.00,,,0.00,0.00,VWS V14.01,2013-07-22 10:46:00,
2013-07-22 05:50:00,77.2,73.0,29.84,WNW,292,5.0,14.0,87,0.00,,,0.00,0.00,VWS V14.01,2013-07-22 10:50:00,
2013-07-22 05:51:00,77.2,73.0,29.84,SSW,206,1.0,9.0,87,0.00,,,0.00,0.00,VWS V14.01,2013-07-22 10:51:00,
2013-07-22 05:56:00,77.2,73.0,29.84,WSW,252,6.0,11.0,87,0.00,,,0.00,0.00,VWS V14.01,2013-07-22 10:56:00,
2013-07-22 06:00:00,77.2,72.7,29.84,West,259,3.0,13.0,86,0.00,,,0.00,0.00,VWS V14.01,2013-07-22 11:00:00,
2013-07-22 06:01:00,77.2,72.7,29.84,West,261,3.0,6.0,86,0.00,,,0.00,0.00,VWS V14.01,2013-07-22 11:01:00,
2013-07-22 06:06:00,77.2,73.0,29.83,SW,229,7.0,14.0,87,0.00,,,0.00,0.00,VWS V14.01,2013-07-22 11:06:00,
2013-07-22 06:10:00,77.2,73.0,29.84,WNW,292,5.0,14.0,87,0.00,,,0.00,0.00,VWS V14.01,2013-07-22 11:10:00,
2013-07-22 06:11:00,77.1,72.9,29.84,SW,223,1.0,5.0,87,0.00,,,0.00,0.00,VWS V14.01,2013-07-22 11:11:00,
2013-07-22 06:16:00,77.1,72.9,29.84,WSW,252,4.0,7.0,87,0.00,,,0.00,5.00,VWS V14.01,2013-07-22 11:16:00,
2013-07-22 06:20:00,77.1,72.9,29.84,SW,229,7.0,8.0,87,0.00,,,0.00,9.00,VWS V14.01,2013-07-22 11:20:00,
2013-07-22 06:21:00,77.1,72.9,29.84,SW,227,1.0,7.0,87,0.00,,,0.00,9.00,VWS V14.01,2013-07-22 11:21:00,
2013-07-22 06:26:00,77.1,72.9,29.84,WSW,242,0.0,10.0,87,0.00,,,0.00,12.00,VWS V14.01,2013-07-22 11:26:00,
2013-07-22 06:30:00,77.1,72.9,29.84,SSW,202,5.0,11.0,87,0.00,,,0.00,12.00,VWS V14.01,2013-07-22 11:30:00,
2013-07-22 06:31:00,77.1,72.9,29.84,SW,232,0.0,9.0,87,0.00,,,0.00,12.00,VWS V14.01,2013-07-22 11:31:00,
2013-07-22 06:36:00,77.1,72.9,29.84,WSW,250,3.0,9.0,87,0.00,,,0.00,16.00,VWS V14.01,2013-07-22 11:36:00,
2013-07-22 06:40:00,77.2,73.0,29.85,WSW,249,4.0,9.0,87,0.00,,,0.00,14.00,VWS V14.01,2013-07-22 11:40:00,
2013-07-22 06:41:00,77.2,73.0,29.85,WNW,286,0.0,11.0,87,0.00,,,0.00,14.00,VWS V14.01,2013-07-22 11:41:00,
2013-07-22 06:46:00,77.2,73.0,29.86,WSW,255,0.0,11.0,87,0.00,,,0.00,12.00,VWS V14.01,2013-07-22 11:46:00,
2013-07-22 06:50:00,77.3,73.1,29.86,SW,236,4.0,11.0,87,0.00,,,0.00,18.00,VWS V14.01,2013-07-22 11:50:00,
2013-07-22 06:51:00,77.3,73.1,29.86,WSW,244,2.0,7.0,87,0.00,,,0.00,19.00,VWS V14.01,2013-07-22 11:51:00,
2013-07-22 06:56:00,77.4,73.2,29.86,SW,236,10.0,10.0,87,0.00,,,0.00,28.00,VWS V14.01,2013-07-22 11:56:00,
2013-07-22 07:00:00,77.4,73.2,29.85,West,278,7.0,11.0,87,0.00,,,0.00,32.00,VWS V14.01,2013-07-22 12:00:00,
2013-07-22 07:01:00,77.4,73.2,29.85,WSW,242,3.0,8.0,87,0.00,,,0.00,32.00,VWS V14.01,2013-07-22 12:01:00,
2013-07-22 07:06:00,77.5,73.3,29.85,WSW,241,4.0,9.0,87,0.00,,,0.00,35.00,VWS V14.01,2013-07-22 12:06:00,
2013-07-22 07:10:00,77.5,73.3,29.86,SW,233,7.0,9.0,87,0.00,,,0.00,33.00,VWS V14.01,2013-07-22 12:10:00,
2013-07-22 07:11:00,77.5,73.3,29.85,West,266,3.0,7.0,87,0.00,,,0.00,33.00,VWS V14.01,2013-07-22 12:11:00,
2013-07-22 07:16:00,77.6,73.4,29.86,WSW,242,6.0,7.0,87,0.00,,,0.00,33.00,VWS V14.01,2013-07-22 12:16:00,
2013-07-22 07:20:00,77.6,73.4,29.86,WSW,244,5.0,10.0,87,0.00,,,0.00,35.00,VWS V14.01,2013-07-22 12:20:00,
2013-07-22 07:21:00,77.6,73.4,29.86,WNW,285,4.0,8.0,87,0.00,,,0.00,40.00,VWS V14.01,2013-07-22 12:21:00,
2013-07-22 07:26:00,77.6,73.4,29.86,SW,230,1.0,11.0,87,0.00,,,0.00,33.00,VWS V14.01,2013-07-22 12:26:00,
2013-07-22 07:30:00,77.7,73.5,29.86,SSW,213,5.0,11.0,87,0.00,,,0.00,33.00,VWS V14.01,2013-07-22 12:30:00,
2013-07-22 07:31:00,77.7,73.5,29.86,WNW,288,4.0,6.0,87,0.00,,,0.00,33.00,VWS V14.01,2013-07-22 12:31:00,
2013-07-22 07:36:00,77.7,73.5,29.86,WSW,242,2.0,12.0,87,0.00,,,0.00,35.00,VWS V14.01,2013-07-22 12:36:00,
2013-07-22 07:40:00,77.8,73.6,29.87,SSW,211,4.0,12.0,87,0.00,,,0.00,30.00,VWS V14.01,2013-07-22 12:40:00,
2013-07-22 07:41:00,77.8,73.6,29.87,SW,227,8.0,10.0,87,0.00,,,0.00,32.00,VWS V14.01,2013-07-22 12:41:00,
2013-07-22 07:46:00,77.9,73.7,29.87,WSW,238,2.0,10.0,87,0.00,,,0.00,37.00,VWS V14.01,2013-07-22 12:46:00,
2013-07-22 07:50:00,77.9,73.7,29.87,SW,221,0.0,10.0,87,0.00,,,0.00,58.00,VWS V14.01,2013-07-22 12:50:00,
2013-07-22 07:51:00,78.0,73.8,29.87,SW,231,2.0,2.0,87,0.00,,,0.00,47.00,VWS V14.01,2013-07-22 12:51:00,
2013-07-22 07:56:00,78.0,73.8,29.87,WSW,238,2.0,7.0,87,0.00,,,0.00,54.00,VWS V14.01,2013-07-22 12:56:00,
2013-07-22 08:00:00,78.1,73.9,29.87,SW,217,4.0,7.0,87,0.00,,,0.00,88.00,VWS V14.01,2013-07-22 13:00:00,
2013-07-22 08:01:00,78.2,74.0,29.87,South,182,2.0,8.0,87,0.00,,,0.00,76.00,VWS V14.01,2013-07-22 13:01:00,
2013-07-22 08:06:00,78.3,74.1,29.87,SW,229,2.0,8.0,87,0.00,,,0.00,65.00,VWS V14.01,2013-07-22 13:06:00,
2013-07-22 08:10:00,78.4,74.2,29.88,WNW,286,3.0,11.0,87,0.00,,,0.00,56.00,VWS V14.01,2013-07-22 13:10:00,
2013-07-22 08:11:00,78.5,74.3,29.88,WSW,237,2.0,7.0,87,0.00,,,0.00,58.00,VWS V14.01,2013-07-22 13:11:00,
2013-07-22 08:16:00,78.7,74.2,29.88,SW,218,0.0,8.0,86,0.00,,,0.00,69.00,VWS V14.01,2013-07-22 13:16:00,
2013-07-22 08:20:00,78.7,74.2,29.88,WSW,242,0.0,8.0,86,0.00,,,0.00,62.00,VWS V14.01,2013-07-22 13:20:00,
2013-07-22 08:21:00,78.7,74.2,29.88,WSW,244,6.0,10.0,86,0.00,,,0.00,67.00,VWS V14.01,2013-07-22 13:21:00,
2013-07-22 08:26:00,78.7,74.2,29.88,WNW,294,3.0,10.0,86,0.00,,,0.00,53.00,VWS V14.01,2013-07-22 13:26:00,
2013-07-22 08:30:00,78.7,74.2,29.88,West,261,2.0,10.0,86,0.00,,,0.00,60.00,VWS V14.01,2013-07-22 13:30:00,
2013-07-22 08:31:00,78.7,73.8,29.88,WSW,256,0.0,6.0,85,0.00,,,0.00,47.00,VWS V14.01,2013-07-22 13:31:00,
2013-07-22 08:36:00,78.8,73.9,29.88,SSW,209,1.0,6.0,85,0.00,,,0.00,60.00,VWS V14.01,2013-07-22 13:36:00,
2013-07-22 08:40:00,78.9,74.0,29.88,WSW,244,0.0,6.0,85,0.00,,,0.00,42.00,VWS V14.01,2013-07-22 13:40:00,
2013-07-22 08:41:00,78.9,74.0,29.88,WSW,248,0.0,2.0,85,0.00,,,0.00,40.00,VWS V14.01,2013-07-22 13:41:00,
2013-07-22 08:46:00,78.9,74.0,29.88,South,190,2.0,4.0,85,0.00,,,0.00,28.00,VWS V14.01,2013-07-22 13:46:00,
2013-07-22 08:50:00,78.9,74.0,29.89,West,265,0.0,7.0,85,0.00,,,0.00,16.00,VWS V14.01,2013-07-22 13:50:00,
2013-07-22 08:51:00,78.9,74.0,29.89,West,265,2.0,2.0,85,0.00,,,0.00,16.00,VWS V14.01,2013-07-22 13:51:00,
2013-07-22 08:56:00,78.9,74.0,29.89,West,281,3.0,5.0,85,0.00,,,0.00,14.00,VWS V14.01,2013-07-22 13:56:00,
2013-07-22 09:00:00,78.8,73.9,29.89,WSW,246,0.0,5.0,85,0.00,,,0.00,12.00,VWS V14.01,2013-07-22 14:00:00,
2013-07-22 09:01:00,78.8,73.9,29.89,WSW,246,0.0,1.0,85,0.00,,,0.00,11.00,VWS V14.01,2013-07-22 14:01:00,
2013-07-22 09:06:00,78.8,73.9,29.89,SSE,164,2.0,3.0,85,0.00,,,0.00,0.00,VWS V14.01,2013-07-22 14:06:00,
2013-07-22 09:10:00,78.7,73.8,29.91,NNE,17,6.0,9.0,85,0.00,,,0.00,0.00,VWS V14.01,2013-07-22 14:10:00,
2013-07-22 09:11:00,78.2,71.9,29.92,NE,40,1.0,7.0,81,0.00,,,0.00,0.00,VWS V14.01,2013-07-22 14:11:00,
2013-07-22 09:16:00,76.7,70.1,29.96,ENE,57,4.0,9.0,80,0.06,,,0.06,0.00,VWS V14.01,2013-07-22 14:16:00,
2013-07-22 09:20:00,74.9,68.7,29.94,ESE,117,3.0,9.0,81,0.35,,,0.35,0.00,VWS V14.01,2013-07-22 14:20:00,
2013-07-22 09:21:00,73.9,68.4,29.93,SW,218,1.0,10.0,83,0.53,,,0.53,0.00,VWS V14.01,2013-07-22 14:21:00,
2013-07-22 09:26:00,72.0,67.9,29.93,West,278,1.0,11.0,87,0.91,,,0.91,0.00,VWS V14.01,2013-07-22 14:26:00,
2013-07-22 09:30:00,71.7,68.3,29.94,WSW,254,1.0,11.0,89,1.03,,,1.03,0.00,VWS V14.01,2013-07-22 14:30:00,
2013-07-22 09:31:00,71.7,68.6,29.92,South,190,0.0,4.0,90,1.08,,,1.08,0.00,VWS V14.01,2013-07-22 14:31:00,
2013-07-22 09:36:00,71.5,68.7,29.91,WSW,254,4.0,4.0,91,1.32,,,1.32,0.00,VWS V14.01,2013-07-22 14:36:00,
2013-07-22 09:40:00,71.6,69.2,29.92,WSW,245,3.0,7.0,92,1.42,,,1.42,0.00,VWS V14.01,2013-07-22 14:40:00,
2013-07-22 09:41:00,71.6,69.2,29.92,WSW,254,0.0,7.0,92,1.46,,,1.46,0.00,VWS V14.01,2013-07-22 14:41:00,
2013-07-22 09:46:00,71.6,69.5,29.93,West,277,1.0,7.0,93,1.58,,,1.58,0.00,VWS V14.01,2013-07-22 14:46:00,
2013-07-22 09:50:00,71.5,69.7,29.91,West,261,0.0,7.0,94,1.73,,,1.73,0.00,VWS V14.01,2013-07-22 14:50:00,
2013-07-22 09:51:00,71.5,69.7,29.91,WNW,294,2.0,5.0,94,1.78,,,1.78,0.00,VWS V14.01,2013-07-22 14:51:00,
2013-07-22 09:56:00,71.3,69.5,29.90,WNW,294,3.0,5.0,94,1.80,,,1.80,5.00,VWS V14.01,2013-07-22 14:56:00,
2013-07-22 10:00:00,71.3,69.5,29.91,WNW,294,2.0,5.0,94,1.81,,,1.81,5.00,VWS V14.01,2013-07-22 15:00:00,
2013-07-22 10:01:00,71.3,69.5,29.91,North,360,2.0,4.0,94,1.81,,,1.81,0.00,VWS V14.01,2013-07-22 15:01:00,
2013-07-22 10:06:00,71.3,69.5,29.92,WNW,298,1.0,5.0,94,1.83,,,1.83,0.00,VWS V14.01,2013-07-22 15:06:00,
2013-07-22 10:10:00,71.3,69.5,29.92,WNW,299,3.0,5.0,94,1.85,,,1.85,5.00,VWS V14.01,2013-07-22 15:10:00,
2013-07-22 10:11:00,71.3,69.5,29.92,WNW,300,0.0,3.0,94,1.86,,,1.86,5.00,VWS V14.01,2013-07-22 15:11:00,
2013-07-22 10:16:00,71.3,69.5,29.93,WNW,299,0.0,3.0,94,1.92,,,1.92,0.00,VWS V14.01,2013-07-22 15:16:00,
2013-07-22 10:20:00,71.4,69.9,29.92,WNW,299,0.0,3.0,95,1.95,,,1.95,7.00,VWS V14.01,2013-07-22 15:20:00,
2013-07-22 10:21:00,71.4,69.9,29.91,WNW,299,0.0,0.0,95,1.61,,,1.96,7.00,VWS V14.01,2013-07-22 15:21:00,
2013-07-22 10:26:00,71.5,70.0,29.90,WNW,300,0.0,2.0,95,1.61,,,1.96,9.00,VWS V14.01,2013-07-22 15:26:00,
2013-07-22 10:30:00,71.5,70.0,29.91,WNW,299,1.0,2.0,95,1.62,,,1.97,7.00,VWS V14.01,2013-07-22 15:30:00,
2013-07-22 10:31:00,71.5,70.0,29.91,WNW,296,3.0,3.0,95,0.94,,,1.97,9.00,VWS V14.01,2013-07-22 15:31:00,
2013-07-22 10:36:00,71.5,70.0,29.91,SSW,198,2.0,5.0,95,0.97,,,2.00,9.00,VWS V14.01,2013-07-22 15:36:00,
2013-07-22 10:40:00,71.5,70.0,29.91,SSW,198,0.0,5.0,95,0.98,,,2.01,11.00,VWS V14.01,2013-07-22 15:40:00,
2013-07-22 10:41:00,71.5,70.0,29.92,SSW,199,0.0,1.0,95,0.60,,,2.02,14.00,VWS V14.01,2013-07-22 15:41:00,
2013-07-22 10:46:00,71.7,70.2,29.91,South,182,0.0,4.0,95,0.63,,,2.05,19.00,VWS V14.01,2013-07-22 15:46:00,
2013-07-22 10:50:00,71.8,70.3,29.91,South,183,0.0,4.0,95,0.63,,,2.05,23.00,VWS V14.01,2013-07-22 15:50:00,
2013-07-22 10:51:00,71.9,70.4,29.90,South,183,0.0,2.0,95,0.32,,,2.05,25.00,VWS V14.01,2013-07-22 15:51:00,
2013-07-22 10:56:00,72.0,70.5,29.90,South,183,1.0,2.0,95,0.32,,,2.05,23.00,VWS V14.01,2013-07-22 15:56:00,
2013-07-22 11:00:00,72.0,70.5,29.90,South,183,1.0,2.0,95,0.32,,,2.05,28.00,VWS V14.01,2013-07-22 16:00:00,
2013-07-22 11:01:00,72.0,70.5,29.90,South,183,2.0,2.0,95,0.24,,,2.05,33.00,VWS V14.01,2013-07-22 16:01:00,
2013-07-22 11:06:00,72.1,70.6,29.90,SE,144,0.0,2.0,95,0.24,,,2.05,40.00,VWS V14.01,2013-07-22 16:06:00,
2013-07-22 11:10:00,72.2,70.7,29.90,SE,144,1.0,2.0,95,0.24,,,2.05,42.00,VWS V14.01,2013-07-22 16:10:00,
2013-07-22 11:11:00,72.3,70.8,29.91,SE,144,0.0,2.0,95,0.20,,,2.05,42.00,VWS V14.01,2013-07-22 16:11:00,
2013-07-22 11:16:00,72.4,70.9,29.91,SE,144,0.0,2.0,95,0.20,,,2.05,51.00,VWS V14.01,2013-07-22 16:16:00,
2013-07-22 11:20:00,72.5,71.3,29.91,SE,144,0.0,2.0,96,0.20,,,2.05,62.00,VWS V14.01,2013-07-22 16:20:00,
2013-07-22 11:21:00,72.6,71.1,29.91,SE,144,0.0,0.0,95,0.10,,,2.05,72.00,VWS V14.01,2013-07-22 16:21:00,
2013-07-22 11:26:00,72.8,71.3,29.91,SE,144,1.0,2.0,95,0.10,,,2.05,111.00,VWS V14.01,2013-07-22 16:26:00,
2013-07-22 11:30:00,73.0,71.8,29.91,SSE,148,0.0,2.0,96,0.10,,,2.05,74.00,VWS V14.01,2013-07-22 16:30:00,
2013-07-22 11:31:00,73.0,71.8,29.91,SSE,149,1.0,2.0,96,0.08,,,2.05,67.00,VWS V14.01,2013-07-22 16:31:00,
2013-07-22 11:36:00,73.1,71.9,29.92,SSE,155,0.0,3.0,96,0.08,,,2.05,67.00,VWS V14.01,2013-07-22 16:36:00,
2013-07-22 11:40:00,73.0,71.8,29.92,South,183,1.0,4.0,96,0.08,,,2.05,67.00,VWS V14.01,2013-07-22 16:40:00,
2013-07-22 11:42:00,73.0,71.8,29.92,South,183,0.0,2.0,96,0.04,,,2.05,70.00,VWS V14.01,2013-07-22 16:42:00,
2013-07-22 11:47:00,73.1,71.9,29.93,South,179,0.0,3.0,96,0.04,,,2.05,23.00,VWS V14.01,2013-07-22 16:47:00,
2013-07-22 11:50:00,73.1,71.9,29.93,SSE,150,0.0,3.0,96,0.04,,,2.05,19.00,VWS V14.01,2013-07-22 16:50:00,
2013-07-22 11:52:00,73.1,71.9,29.93,SE,145,0.0,1.0,96,0.00,,,2.05,16.00,VWS V14.01,2013-07-22 16:52:00,
2013-07-22 11:57:00,73.0,71.8,29.93,SSE,159,0.0,5.0,96,0.00,,,2.05,30.00,VWS V14.01,2013-07-22 16:57:00,
2013-07-22 12:00:00,72.9,71.7,29.93,SSW,203,0.0,5.0,96,0.00,,,2.05,30.00,VWS V14.01,2013-07-22 17:00:00,
2013-07-22 12:02:00,72.9,71.7,29.93,SSW,204,0.0,2.0,96,0.00,,,2.05,28.00,VWS V14.01,2013-07-22 17:02:00,
2013-07-22 12:07:00,72.9,71.7,29.93,South,185,0.0,6.0,96,0.00,,,2.05,46.00,VWS V14.01,2013-07-22 17:07:00,
2013-07-22 12:10:00,72.9,71.7,29.92,South,185,0.0,6.0,96,0.00,,,2.05,40.00,VWS V14.01,2013-07-22 17:10:00,
2013-07-22 12:12:00,72.9,71.7,29.92,South,191,3.0,3.0,96,0.00,,,2.05,47.00,VWS V14.01,2013-07-22 17:12:00,
2013-07-22 12:17:00,73.0,71.8,29.92,South,187,0.0,4.0,96,0.00,,,2.05,35.00,VWS V14.01,2013-07-22 17:17:00,
2013-07-22 12:20:00,73.0,71.8,29.92,South,187,0.0,4.0,96,0.00,,,2.05,40.00,VWS V14.01,2013-07-22 17:20:00,
2013-07-22 12:22:00,73.1,71.9,29.92,South,187,0.0,1.0,96,0.00,,,2.05,44.00,VWS V14.01,2013-07-22 17:22:00,
2013-07-22 12:27:00,73.1,71.9,29.90,South,186,2.0,3.0,96,0.00,,,2.05,54.00,VWS V14.01,2013-07-22 17:27:00,
2013-07-22 12:30:00,73.1,71.9,29.90,South,169,0.0,3.0,96,0.00,,,2.05,74.00,VWS V14.01,2013-07-22 17:30:00,
2013-07-22 12:32:00,73.2,72.0,29.90,South,171,0.0,3.0,96,0.00,,,2.05,98.00,VWS V14.01,2013-07-22 17:32:00,
2013-07-22 12:37:00,73.2,72.0,29.91,South,182,4.0,6.0,96,0.00,,,2.05,105.00,VWS V14.01,2013-07-22 17:37:00,
2013-07-22 12:40:00,73.3,72.1,29.90,South,187,0.0,6.0,96,0.00,,,2.05,130.00,VWS V14.01,2013-07-22 17:40:00,
2013-07-22 12:42:00,73.3,72.1,29.90,South,182,2.0,7.0,96,0.00,,,2.05,139.00,VWS V14.01,2013-07-22 17:42:00,
2013-07-22 12:47:00,73.5,72.3,29.90,SW,215,3.0,7.0,96,0.00,,,2.05,132.00,VWS V14.01,2013-07-22 17:47:00,
2013-07-22 12:50:00,73.7,72.5,29.90,South,189,1.0,7.0,96,0.00,,,2.05,127.00,VWS V14.01,2013-07-22 17:50:00,
2013-07-22 12:52:00,73.7,72.5,29.90,SSW,194,3.0,6.0,96,0.00,,,2.05,123.00,VWS V14.01,2013-07-22 17:52:00,
2013-07-22 13:00:00,74.0,72.8,29.90,SSW,202,2.0,7.0,96,0.00,,,2.05,123.00,VWS V14.01,2013-07-22 18:00:00,
2013-07-22 13:10:00,74.1,72.9,29.90,South,180,2.0,9.0,96,0.00,,,2.05,115.00,VWS V14.01,2013-07-22 18:10:00,
2013-07-22 13:20:00,74.4,73.2,29.90,SSW,202,4.0,13.0,96,0.00,,,2.05,152.00,VWS V14.01,2013-07-22 18:20:00,
2013-07-22 13:30:00,74.9,73.7,29.90,WSW,248,3.0,10.0,96,0.00,,,2.05,290.00,VWS V14.01,2013-07-22 18:30:00,
2013-07-22 13:40:00,75.4,74.2,29.89,SW,225,2.0,7.0,96,0.00,,,2.05,463.00,VWS V14.01,2013-07-22 18:40:00,
2013-07-22 13:50:00,75.7,74.5,29.90,WSW,248,2.0,9.0,96,0.00,,,2.05,465.00,VWS V14.01,2013-07-22 18:50:00,
2013-07-22 14:00:00,75.6,74.4,29.89,SW,225,3.0,10.0,96,0.00,,,2.05,442.00,VWS V14.01,2013-07-22 19:00:00,
2013-07-22 14:10:00,76.7,75.5,29.90,SSW,202,2.0,8.0,96,0.00,,,2.05,630.00,VWS V14.01,2013-07-22 19:10:00,
2013-07-22 14:20:00,78.0,76.1,29.89,WSW,248,2.0,8.0,94,0.00,,,2.05,691.00,VWS V14.01,2013-07-22 19:20:00,
2013-07-22 14:30:00,80.0,76.1,29.89,SW,225,3.0,9.0,88,0.00,,,2.05,1024.00,VWS V14.01,2013-07-22 19:30:00,
2013-07-22 14:40:00,82.0,77.1,29.89,WSW,248,2.0,8.0,85,0.00,,,2.05,883.00,VWS V14.01,2013-07-22 19:40:00,
2013-07-22 14:50:00,83.2,76.0,29.89,WSW,248,2.0,8.0,79,0.00,,,2.05,923.00,VWS V14.01,2013-07-22 19:50:00,
2013-07-22 15:00:00,84.1,75.7,29.88,WSW,248,4.0,9.0,76,0.00,,,2.05,909.00,VWS V14.01,2013-07-22 20:00:00,
2013-07-22 15:10:00,84.7,75.5,29.87,West,270,4.0,10.0,74,0.00,,,2.05,900.00,VWS V14.01,2013-07-22 20:10:00,
2013-07-22 15:20:00,85.4,75.8,29.87,WSW,248,3.0,11.0,73,0.00,,,2.05,878.00,VWS V14.01,2013-07-22 20:20:00,
2013-07-22 15:30:00,85.7,75.6,29.86,WSW,248,4.0,11.0,72,0.00,,,2.05,844.00,VWS V14.01,2013-07-22 20:30:00,
2013-07-22 15:40:00,86.5,75.1,29.85,WSW,248,3.0,11.0,69,0.00,,,2.05,817.00,VWS V14.01,2013-07-22 20:40:00,
2013-07-22 15:50:00,86.1,74.3,29.86,WSW,248,3.0,11.0,68,0.00,,,2.05,771.00,VWS V14.01,2013-07-22 20:50:00,
2013-07-22 16:00:00,86.7,75.3,29.86,WSW,248,2.0,10.0,69,0.00,,,2.05,805.00,VWS V14.01,2013-07-22 21:00:00,
2013-07-22 16:10:00,87.4,74.7,29.86,WSW,248,3.0,9.0,66,0.00,,,2.05,748.00,VWS V14.01,2013-07-22 21:10:00,
2013-07-22 16:20:00,87.2,75.4,29.85,WSW,248,3.0,11.0,68,0.00,,,2.05,692.00,VWS V14.01,2013-07-22 21:20:00,
2013-07-22 16:30:00,87.7,74.9,29.85,West,270,4.0,12.0,66,0.00,,,2.05,621.00,VWS V14.01,2013-07-22 21:30:00,
2013-07-22 16:40:00,88.3,74.1,29.85,WNW,292,5.0,12.0,63,0.00,,,2.05,686.00,VWS V14.01,2013-07-22 21:40:00,
2013-07-22 16:50:00,87.3,72.2,29.84,West,270,5.0,13.0,61,0.00,,,2.05,190.00,VWS V14.01,2013-07-22 21:50:00,
2013-07-22 17:00:00,85.9,72.3,29.84,WNW,292,3.0,8.0,64,0.00,,,2.05,175.00,VWS V14.01,2013-07-22 22:00:00,
2013-07-22 17:10:00,85.1,71.6,29.85,WNW,292,3.0,10.0,64,0.00,,,2.05,187.00,VWS V14.01,2013-07-22 22:10:00,
2013-07-22 17:20:00,84.8,71.3,29.85,West,270,3.0,10.0,64,0.00,,,2.05,287.00,VWS V14.01,2013-07-22 22:20:00,
2013-07-22 17:30:00,85.7,72.1,29.85,WNW,292,3.0,7.0,64,0.00,,,2.05,460.00,VWS V14.01,2013-07-22 22:30:00,
2013-07-22 17:40:00,85.8,73.1,29.85,WNW,292,3.0,8.0,66,0.00,,,2.05,310.00,VWS V14.01,2013-07-22 22:40:00,
2013-07-22 17:50:00,85.1,73.4,29.86,West,270,1.0,5.0,68,0.00,,,2.05,198.00,VWS V14.01,2013-07-22 22:50:00,
2013-07-22 18:00:00,84.7,73.8,29.86,West,270,1.0,6.0,70,0.00,,,2.05,196.00,VWS V14.01,2013-07-22 23:00:00,
2013-07-22 18:10:00,84.2,73.8,29.85,WSW,248,1.0,3.0,71,0.00,,,2.05,157.00,VWS V14.01,2013-07-22 23:10:00,
2013-07-22 18:20:00,83.8,73.8,29.85,West,270,0.0,4.0,72,0.00,,,2.05,127.00,VWS V14.01,2013-07-22 23:20:00,
2013-07-22 18:30:00,83.5,73.9,29.84,WSW,248,0.0,3.0,73,0.00,,,2.05,125.00,VWS V14.01,2013-07-22 23:30:00,
2013-07-22 18:40:00,83.2,74.1,29.85,WSW,248,1.0,4.0,74,0.00,,,2.05,122.00,VWS V14.01,2013-07-22 23:40:00,
2013-07-22 18:50:00,82.8,74.1,29.85,WSW,248,1.0,5.0,75,0.00,,,2.05,114.00,VWS V14.01,2013-07-22 23:50:00,
2013-07-22 19:00:00,82.7,74.4,29.85,WSW,248,1.0,5.0,76,0.00,,,2.05,123.00,VWS V14.01,2013-07-23 00:00:00,
2013-07-22 19:10:00,82.9,74.6,29.85,WNW,292,1.0,6.0,76,0.00,,,2.05,140.00,VWS V14.01,2013-07-23 00:10:00,
2013-07-22 19:20:00,82.8,74.5,29.85,WSW,248,1.0,3.0,76,0.00,,,2.05,90.00,VWS V14.01,2013-07-23 00:20:00,
2013-07-22 19:30:00,82.2,74.3,29.84,WSW,248,0.0,4.0,77,0.00,,,2.05,66.00,VWS V14.01,2013-07-23 00:30:00,
2013-07-22 19:40:00,81.5,74.4,29.84,WSW,248,0.0,2.0,79,0.00,,,2.05,53.00,VWS V14.01,2013-07-23 00:40:00,
2013-07-22 19:50:00,81.2,74.4,29.84,WSW,248,0.0,3.0,80,0.00,,,2.05,28.00,VWS V14.01,2013-07-23 00:50:00,
2013-07-22 20:00:00,81.0,74.2,29.85,WSW,248,0.0,3.0,80,0.00,,,2.05,14.00,VWS V14.01,2013-07-23 01:00:00,
2013-07-22 20:10:00,80.7,73.6,29.86,WSW,248,0.0,4.0,79,0.00,,,2.05,2.00,VWS V14.01,2013-07-23 01:10:00,
2013-07-22 20:20:00,80.3,73.6,29.85,SW,225,0.0,4.0,80,0.00,,,2.05,0.00,VWS V14.01,2013-07-23 01:20:00,
2013-07-22 20:30:00,80.0,74.0,29.86,SW,225,0.0,2.0,82,0.00,,,2.05,0.00,VWS V14.01,2013-07-23 01:30:00,
2013-07-22 20:40:00,79.8,74.2,29.87,SW,225,0.0,2.0,83,0.00,,,2.05,0.00,VWS V14.01,2013-07-23 01:40:00,
2013-07-22 20:50:00,79.5,73.9,29.87,SW,225,1.0,3.0,83,0.00,,,2.05,0.00,VWS V14.01,2013-07-23 01:50:00,
2013-07-22 21:00:00,79.3,74.1,29.87,SW,225,0.0,4.0,84,0.00,,,2.05,0.00,VWS V14.01,2013-07-23 02:00:00,
2013-07-22 21:10:00,79.2,73.9,29.87,SW,225,1.0,4.0,84,0.00,,,2.05,0.00,VWS V14.01,2013-07-23 02:10:00,
2013-07-22 21:20:00,79.0,73.8,29.86,SW,225,1.0,4.0,84,0.00,,,2.05,0.00,VWS V14.01,2013-07-23 02:20:00,
2013-07-22 21:30:00,78.8,73.9,29.87,SW,225,0.0,2.0,85,0.00,,,2.05,0.00,VWS V14.01,2013-07-23 02:30:00,
2013-07-22 21:40:00,78.7,73.8,29.87,SW,225,0.0,3.0,85,0.00,,,2.05,0.00,VWS V14.01,2013-07-23 02:40:00,
2013-07-22 21:50:00,78.3,73.8,29.86,SW,225,0.0,3.0,86,0.00,,,2.05,0.00,VWS V14.01,2013-07-23 02:50:00,
2013-07-22 22:00:00,78.2,74.0,29.86,SW,225,1.0,3.0,87,0.00,,,2.05,0.00,VWS V14.01,2013-07-23 03:00:00,
2013-07-22 22:10:00,78.0,73.8,29.86,SW,225,0.0,3.0,87,0.00,,,2.05,0.00,VWS V14.01,2013-07-23 03:10:00,
2013-07-22 22:20:00,78.0,73.8,29.87,SW,225,0.0,1.0,87,0.00,,,2.05,0.00,VWS V14.01,2013-07-23 03:20:00,
2013-07-22 22:30:00,78.0,73.8,29.86,SW,225,0.0,3.0,87,0.00,,,2.05,0.00,VWS V14.01,2013-07-23 03:30:00,
2013-07-22 22:40:00,78.3,73.8,29.86,SW,225,0.0,4.0,86,0.00,,,2.05,0.00,VWS V14.01,2013-07-23 03:40:00,
2013-07-22 22:50:00,78.6,74.1,29.86,SSW,202,1.0,4.0,86,0.00,,,2.05,0.00,VWS V14.01,2013-07-23 03:50:00,
2013-07-22 23:00:00,78.5,74.3,29.87,SSW,202,1.0,3.0,87,0.00,,,2.05,0.00,VWS V14.01,2013-07-23 04:00:00,
2013-07-22 23:10:00,78.4,74.2,29.87,South,180,0.0,3.0,87,0.00,,,2.05,0.00,VWS V14.01,2013-07-23 04:10:00,
2013-07-22 23:20:00,78.5,74.7,29.87,SSW,202,1.0,6.0,88,0.00,,,2.05,0.00,VWS V14.01,2013-07-23 04:20:00,
2013-07-22 23:30:00,78.7,74.8,29.87,SSW,202,1.0,4.0,88,0.00,,,2.05,0.00,VWS V14.01,2013-07-23 04:30:00,
2013-07-22 23:40:00,78.7,74.8,29.87,SSW,202,1.0,6.0,88,0.00,,,2.05,0.00,VWS V14.01,2013-07-23 04:40:00,
2013-07-22 23:50:00,78.7,75.2,29.87,SW,225,1.0,6.0,89,0.00,,,2.05,0.00,VWS V14.01,2013-07-23 04:50:00,